WMT2FK EGBB-LROP

Flight info

Callsign WMT2FK
Flight time 3h 1m
Altitude 35000
Route UNGAP P155 SIVDA P137 REDFA DCT TACHA DCT NIGUG DCT HMM DCT EXOBA DCT NOMKA L620 SULED DCT EKPEK/N0446F370 L620 OMELO DCT OMIFU DCT MAKAL DCT PITOK DCT PERIT DCT BADOR DCT DENAK
Aircraft A321/M-SDE3FGHIRWY/LB1

Departure

Time 2026-05-05 21:11
Airport Birmingham Airport (EGBB)

Arrival

Time 2026-05-06 00:12
Airport Bucharest Henri Coandă International Airport (LROP)
Time Latitude Longitude Altitude Speed Heading
2026-05-05 20:43 52.45204 -1.73695 324 ft 0 kts 326°
2026-05-05 20:58 52.45202 -1.73693 323 ft 3 kts 326°
2026-05-05 20:58 52.45182 -1.73671 323 ft 1 kts 326°
2026-05-05 20:59 52.45164 -1.73646 321 ft 4 kts 304°
2026-05-05 20:59 52.45155 -1.73608 320 ft 4 kts 264°
2026-05-05 20:59 52.45163 -1.73569 321 ft 3 kts 236°
2026-05-05 20:59 52.45153 -1.73593 321 ft 4 kts 236°
2026-05-05 21:00 52.45147 -1.73609 323 ft 0 kts 236°
2026-05-05 21:04 52.45144 -1.73615 323 ft 3 kts 236°
2026-05-05 21:04 52.45108 -1.73700 323 ft 10 kts 234°
2026-05-05 21:04 52.45044 -1.73743 323 ft 11 kts 175°
2026-05-05 21:05 52.44977 -1.73681 323 ft 12 kts 146°
2026-05-05 21:05 52.44902 -1.73647 323 ft 12 kts 195°
2026-05-05 21:05 52.44816 -1.73689 323 ft 13 kts 196°
2026-05-05 21:05 52.44733 -1.73746 324 ft 9 kts 224°
2026-05-05 21:06 52.44720 -1.73775 325 ft 0 kts 236°
2026-05-05 21:06 52.44717 -1.73781 325 ft 0 kts 236°
2026-05-05 21:08 52.44716 -1.73785 325 ft 2 kts 236°
2026-05-05 21:08 52.44675 -1.73883 326 ft 15 kts 235°
2026-05-05 21:08 52.44651 -1.73962 325 ft 9 kts 272°
2026-05-05 21:08 52.44678 -1.74016 326 ft 0 kts 327°
2026-05-05 21:10 52.44687 -1.74026 325 ft 8 kts 327°
2026-05-05 21:10 52.44914 -1.74276 327 ft 76 kts 326°
2026-05-05 21:10 52.45538 -1.74966 323 ft 139 kts 326°
2026-05-05 21:10 52.46466 -1.75978 529 ft 167 kts 327°
2026-05-05 21:11 52.47390 -1.77000 1437 ft 158 kts 330°
2026-05-05 21:11 52.48334 -1.78042 1874 ft 175 kts 332°
2026-05-05 21:11 52.49404 -1.79237 2103 ft 197 kts 331°
2026-05-05 21:11 52.50630 -1.80442 2276 ft 213 kts 346°
2026-05-05 21:12 52.52090 -1.80366 2611 ft 214 kts 27°
2026-05-05 21:12 52.53184 -1.78795 3234 ft 214 kts 63°
2026-05-05 21:12 52.53649 -1.76462 3933 ft 218 kts 75°
2026-05-05 21:12 52.53865 -1.73977 4609 ft 225 kts 93°
2026-05-05 21:13 52.53556 -1.71419 5238 ft 232 kts 101°
2026-05-05 21:13 52.53187 -1.68814 5947 ft 236 kts 104°
2026-05-05 21:13 52.52463 -1.66374 6531 ft 248 kts 130°
2026-05-05 21:13 52.51207 -1.64250 6821 ft 270 kts 135°
2026-05-05 21:14 52.49843 -1.62069 7403 ft 277 kts 136°
2026-05-05 21:14 52.48441 -1.59841 8048 ft 284 kts 135°
2026-05-05 21:14 52.47011 -1.57556 8707 ft 289 kts 135°
2026-05-05 21:14 52.45560 -1.55226 9369 ft 296 kts 135°
2026-05-05 21:15 52.44085 -1.52835 10015 ft 300 kts 135°
2026-05-05 21:15 52.42569 -1.50370 10341 ft 318 kts 135°
2026-05-05 21:15 52.40946 -1.47730 10481 ft 340 kts 135°
2026-05-05 21:15 52.39213 -1.44913 10681 ft 359 kts 135°
2026-05-05 21:16 52.37608 -1.41752 11186 ft 365 kts 122°
2026-05-05 21:16 52.36484 -1.38031 11826 ft 366 kts 108°
2026-05-05 21:16 52.35919 -1.33970 12467 ft 368 kts 94°
2026-05-05 21:16 52.35864 -1.29826 13062 ft 371 kts 88°
2026-05-05 21:17 52.35884 -1.25581 13661 ft 375 kts 88°
2026-05-05 21:17 52.35898 -1.21298 14260 ft 378 kts 89°
2026-05-05 21:17 52.35911 -1.16977 14806 ft 382 kts 89°
2026-05-05 21:17 52.35922 -1.12609 15359 ft 385 kts 89°
2026-05-05 21:18 52.35931 -1.08211 15952 ft 388 kts 90°
2026-05-05 21:18 52.35935 -1.03782 16513 ft 392 kts 90°
2026-05-05 21:18 52.35936 -0.99306 17083 ft 395 kts 90°
2026-05-05 21:18 52.35938 -0.94802 17691 ft 397 kts 91°
2026-05-05 21:19 52.35942 -0.90272 18243 ft 400 kts 91°
2026-05-05 21:19 52.35942 -0.85704 18748 ft 403 kts 91°
2026-05-05 21:19 52.35942 -0.81100 19252 ft 406 kts 91°
2026-05-05 21:19 52.35937 -0.76461 19717 ft 409 kts 91°
2026-05-05 21:20 52.35929 -0.71786 20226 ft 412 kts 91°
2026-05-05 21:20 52.35919 -0.67089 20730 ft 415 kts 91°
2026-05-05 21:20 52.35909 -0.62342 21212 ft 418 kts 91°
2026-05-05 21:20 52.35898 -0.57570 21689 ft 421 kts 91°
2026-05-05 21:21 52.35887 -0.52757 22154 ft 424 kts 91°
2026-05-05 21:21 52.35875 -0.47915 22595 ft 428 kts 91°
2026-05-05 21:21 52.35861 -0.43032 23026 ft 431 kts 91°
2026-05-05 21:21 52.35843 -0.38120 23452 ft 434 kts 91°
2026-05-05 21:22 52.35822 -0.33164 23831 ft 437 kts 91°
2026-05-05 21:22 52.35794 -0.28182 24198 ft 439 kts 91°
2026-05-05 21:22 52.35765 -0.23176 24568 ft 441 kts 91°
2026-05-05 21:22 52.35736 -0.18152 24933 ft 444 kts 92°
2026-05-05 21:23 52.35707 -0.13093 25294 ft 446 kts 92°
2026-05-05 21:23 52.35675 -0.08010 25652 ft 448 kts 92°
2026-05-05 21:23 52.35639 -0.02974 26005 ft 450 kts 92°
2026-05-05 21:23 52.35584 0.02156 26357 ft 451 kts 95°
2026-05-05 21:24 52.35232 0.07255 26712 ft 452 kts 100°
2026-05-05 21:24 52.34783 0.12355 27060 ft 454 kts 101°
2026-05-05 21:24 52.34328 0.17470 27410 ft 456 kts 101°
2026-05-05 21:24 52.33871 0.22609 27752 ft 458 kts 101°
2026-05-05 21:25 52.33411 0.27771 28083 ft 460 kts 101°
2026-05-05 21:25 52.32948 0.32950 28410 ft 461 kts 101°
2026-05-05 21:25 52.32482 0.38144 28737 ft 463 kts 101°
2026-05-05 21:25 52.32010 0.43371 29068 ft 465 kts 101°
2026-05-05 21:26 52.31532 0.48608 29405 ft 467 kts 102°
2026-05-05 21:26 52.31049 0.53866 29712 ft 469 kts 101°
2026-05-05 21:26 52.30560 0.59150 30057 ft 470 kts 102°
2026-05-05 21:26 52.30072 0.64420 30449 ft 469 kts 102°
2026-05-05 21:27 52.29585 0.69672 30858 ft 467 kts 102°
2026-05-05 21:27 52.29096 0.74914 31261 ft 465 kts 102°
2026-05-05 21:27 52.28608 0.80123 31662 ft 464 kts 102°
2026-05-05 21:27 52.28126 0.85255 32047 ft 462 kts 102°
2026-05-05 21:28 52.27639 0.90420 32446 ft 460 kts 101°
2026-05-05 21:28 52.27150 0.95558 32859 ft 457 kts 101°
2026-05-05 21:28 52.26659 1.00675 33251 ft 455 kts 102°
2026-05-05 21:28 52.26169 1.05767 33670 ft 452 kts 102°
2026-05-05 21:29 52.25680 1.10826 34059 ft 450 kts 102°
2026-05-05 21:29 52.25189 1.15861 34351 ft 450 kts 102°
2026-05-05 21:29 52.24694 1.20898 34592 ft 450 kts 102°
2026-05-05 21:29 52.24197 1.25947 34824 ft 450 kts 102°
2026-05-05 21:30 52.23699 1.30998 34954 ft 452 kts 102°
2026-05-05 21:30 52.23200 1.36053 34998 ft 451 kts 102°
2026-05-05 21:30 52.22205 1.46138 34991 ft 450 kts 102°
2026-05-05 21:31 52.21213 1.56019 34988 ft 448 kts 102°
2026-05-05 21:31 52.20196 1.66022 34981 ft 447 kts 102°
2026-05-05 21:32 52.19180 1.75958 34982 ft 447 kts 102°
2026-05-05 21:32 52.18258 1.84924 34977 ft 447 kts 103°
2026-05-05 21:33 52.17223 1.94919 34990 ft 448 kts 103°
2026-05-05 21:33 52.16173 2.04916 34985 ft 447 kts 103°
2026-05-05 21:34 52.15218 2.13929 34988 ft 447 kts 103°
2026-05-05 21:34 52.14158 2.23904 34988 ft 447 kts 103°
2026-05-05 21:35 52.13090 2.33873 34988 ft 447 kts 103°
2026-05-05 21:35 52.12081 2.43844 34983 ft 449 kts 98°
2026-05-05 21:36 52.12489 2.53938 34977 ft 455 kts 79°
2026-05-05 21:36 52.14332 2.63840 34974 ft 457 kts 75°
2026-05-05 21:37 52.16221 2.73723 34977 ft 458 kts 76°
2026-05-05 21:37 52.18087 2.83639 34975 ft 458 kts 76°
2026-05-05 21:38 52.19944 2.93564 34976 ft 458 kts 76°
2026-05-05 21:38 52.21795 3.03483 34970 ft 458 kts 76°
2026-05-05 21:39 52.23647 3.13419 34975 ft 458 kts 76°
2026-05-05 21:39 52.25066 3.23472 34969 ft 453 kts 89°
2026-05-05 21:40 52.24700 3.33616 34967 ft 447 kts 102°
2026-05-05 21:40 52.23726 3.43567 34960 ft 448 kts 102°
2026-05-05 21:41 52.22760 3.53594 34962 ft 447 kts 102°
2026-05-05 21:41 52.21790 3.63613 34963 ft 447 kts 102°
2026-05-05 21:42 52.20804 3.73613 34968 ft 446 kts 102°
2026-05-05 21:42 52.19804 3.83598 34963 ft 446 kts 102°
2026-05-05 21:43 52.18802 3.93572 34960 ft 446 kts 102°
2026-05-05 21:43 52.17790 4.03530 34953 ft 445 kts 103°
2026-05-05 21:44 52.16767 4.13480 34954 ft 445 kts 103°
2026-05-05 21:44 52.15743 4.23411 34954 ft 445 kts 103°
2026-05-05 21:45 52.14707 4.33340 34952 ft 444 kts 103°
2026-05-05 21:45 52.13662 4.43246 34950 ft 444 kts 103°
2026-05-05 21:46 52.12611 4.53154 34945 ft 444 kts 103°
2026-05-05 21:46 52.11551 4.63059 34945 ft 444 kts 103°
2026-05-05 21:47 52.10497 4.72882 34940 ft 444 kts 103°
2026-05-05 21:47 52.09423 4.82771 34942 ft 444 kts 103°
2026-05-05 21:48 52.08338 4.92647 34924 ft 444 kts 103°
2026-05-05 21:48 52.07248 5.02513 34936 ft 443 kts 103°
2026-05-05 21:49 52.06155 5.12364 34940 ft 443 kts 104°
2026-05-05 21:49 52.05046 5.22193 34941 ft 442 kts 104°
2026-05-05 21:50 52.03989 5.31896 34935 ft 443 kts 102°
2026-05-05 21:50 52.03288 5.41858 34931 ft 444 kts 99°
2026-05-05 21:51 52.02737 5.51849 34925 ft 444 kts 99°
2026-05-05 21:51 52.02112 5.61822 34926 ft 443 kts 100°
2026-05-05 21:52 52.01048 5.76726 34916 ft 443 kts 100°
2026-05-05 21:53 52.00334 5.86661 34917 ft 443 kts 100°
2026-05-05 21:53 51.99622 5.96592 34905 ft 443 kts 100°
2026-05-05 21:54 51.98904 6.06513 34907 ft 443 kts 101°
2026-05-05 21:54 51.98170 6.16361 34901 ft 443 kts 101°
2026-05-05 21:55 51.97422 6.26339 34902 ft 443 kts 101°
2026-05-05 21:55 51.96685 6.36185 34891 ft 443 kts 101°
2026-05-05 21:56 51.95936 6.46076 34896 ft 442 kts 101°
2026-05-05 21:56 51.95175 6.55939 34898 ft 441 kts 101°
2026-05-05 21:57 51.94407 6.65788 34897 ft 440 kts 101°
2026-05-05 21:57 51.93630 6.75621 34894 ft 440 kts 101°
2026-05-05 21:58 51.92849 6.85444 34878 ft 439 kts 102°
2026-05-05 21:58 51.92059 6.95253 34886 ft 439 kts 102°
2026-05-05 21:59 51.91264 7.05046 34886 ft 438 kts 102°
2026-05-05 21:59 51.90458 7.14833 34887 ft 438 kts 102°
2026-05-05 22:00 51.89642 7.24607 34880 ft 438 kts 102°
2026-05-05 22:00 51.88820 7.34365 34870 ft 438 kts 102°
2026-05-05 22:01 51.87995 7.44115 34882 ft 437 kts 102°
2026-05-05 22:01 51.87164 7.53857 34877 ft 437 kts 102°
2026-05-05 22:02 51.86324 7.63580 34873 ft 436 kts 102°
2026-05-05 22:02 51.85427 7.73223 34868 ft 435 kts 105°
2026-05-05 22:03 51.84148 7.82755 34853 ft 433 kts 108°
2026-05-05 22:03 51.82687 7.92176 34872 ft 432 kts 108°
2026-05-05 22:04 51.81260 8.01616 34859 ft 432 kts 108°
2026-05-05 22:04 51.79885 8.11068 34871 ft 432 kts 108°
2026-05-05 22:05 51.78754 8.18927 34852 ft 432 kts 108°
2026-05-05 22:05 51.77379 8.28369 34845 ft 432 kts 108°
2026-05-05 22:06 51.76002 8.37804 34855 ft 432 kts 107°
2026-05-05 22:06 51.74708 8.47274 34853 ft 432 kts 107°
2026-05-05 22:07 51.73430 8.56747 34853 ft 432 kts 107°
2026-05-05 22:07 51.72118 8.66201 34854 ft 431 kts 107°
2026-05-05 22:08 51.70787 8.75623 34848 ft 431 kts 107°
2026-05-05 22:08 51.69457 8.85025 34860 ft 429 kts 107°
2026-05-05 22:09 51.68143 8.94334 34862 ft 428 kts 107°
2026-05-05 22:09 51.66812 9.03679 34859 ft 428 kts 107°
2026-05-05 22:10 51.65462 9.13007 34853 ft 427 kts 107°
2026-05-05 22:10 51.64104 9.22319 34850 ft 427 kts 107°
2026-05-05 22:11 51.62750 9.31623 34841 ft 427 kts 107°
2026-05-05 22:11 51.61393 9.40916 34833 ft 427 kts 107°
2026-05-05 22:12 51.60025 9.50202 34833 ft 427 kts 107°
2026-05-05 22:12 51.58653 9.59490 34837 ft 426 kts 107°
2026-05-05 22:13 51.57276 9.68762 34813 ft 426 kts 108°
2026-05-05 22:13 51.55888 9.78031 34824 ft 427 kts 108°
2026-05-05 22:14 51.54485 9.87304 34835 ft 427 kts 108°
2026-05-05 22:14 51.53078 9.96567 34840 ft 427 kts 108°
2026-05-05 22:15 51.51661 10.05825 34839 ft 427 kts 108°
2026-05-05 22:15 51.50248 10.15076 34817 ft 427 kts 108°
2026-05-05 22:16 51.48834 10.24264 34823 ft 427 kts 108°
2026-05-05 22:16 51.47393 10.33518 34823 ft 427 kts 108°
2026-05-05 22:17 51.45947 10.42757 34829 ft 428 kts 108°
2026-05-05 22:17 51.44495 10.52011 34834 ft 428 kts 108°
2026-05-05 22:18 51.43042 10.61251 34821 ft 428 kts 108°
2026-05-05 22:18 51.41582 10.70494 34824 ft 428 kts 108°
2026-05-05 22:19 51.40109 10.79748 34822 ft 429 kts 108°
2026-05-05 22:19 51.38622 10.88993 34827 ft 429 kts 108°
2026-05-05 22:20 51.37125 10.98242 34829 ft 429 kts 108°
2026-05-05 22:20 51.35632 11.07484 34798 ft 429 kts 108°
2026-05-05 22:21 51.34121 11.16724 34807 ft 430 kts 109°
2026-05-05 22:21 51.32608 11.25905 34816 ft 430 kts 109°
2026-05-05 22:22 51.31086 11.35156 34813 ft 430 kts 109°
2026-05-05 22:22 51.29569 11.44411 34823 ft 431 kts 109°
2026-05-05 22:23 51.28028 11.53661 34789 ft 431 kts 109°
2026-05-05 22:23 51.26455 11.62899 34785 ft 432 kts 109°
2026-05-05 22:24 51.24882 11.72177 34785 ft 434 kts 109°
2026-05-05 22:24 51.23313 11.81480 34794 ft 434 kts 109°
2026-05-05 22:25 51.21730 11.90783 34790 ft 435 kts 109°
2026-05-05 22:25 51.20136 12.00081 34776 ft 435 kts 110°
2026-05-05 22:26 51.18538 12.09385 34789 ft 435 kts 110°
2026-05-05 22:26 51.16941 12.18614 34791 ft 435 kts 109°
2026-05-05 22:27 51.15327 12.27879 34815 ft 434 kts 110°
2026-05-05 22:27 51.13701 12.37126 34803 ft 433 kts 110°
2026-05-05 22:28 51.12064 12.46353 34796 ft 433 kts 110°
2026-05-05 22:28 51.10422 12.55557 34802 ft 432 kts 110°
2026-05-05 22:29 51.08779 12.64749 34804 ft 432 kts 110°
2026-05-05 22:29 51.07131 12.73924 34804 ft 431 kts 110°
2026-05-05 22:30 51.05469 12.83088 34805 ft 431 kts 110°
2026-05-05 22:30 51.03804 12.92251 34771 ft 432 kts 110°
2026-05-05 22:31 51.02123 13.01440 34770 ft 434 kts 110°
2026-05-05 22:31 51.00429 13.10662 34774 ft 436 kts 110°
2026-05-05 22:32 50.98724 13.19904 34785 ft 437 kts 110°
2026-05-05 22:32 50.97013 13.29098 34797 ft 437 kts 110°
2026-05-05 22:33 50.95307 13.38371 34764 ft 440 kts 110°
2026-05-05 22:33 50.93628 13.47808 35024 ft 448 kts 109°
2026-05-05 22:33 50.92780 13.52565 35250 ft 449 kts 110°
2026-05-05 22:34 50.91912 13.57320 35483 ft 450 kts 110°
2026-05-05 22:34 50.91023 13.62086 35716 ft 451 kts 111°
2026-05-05 22:34 50.90121 13.66846 35953 ft 452 kts 111°
2026-05-05 22:34 50.89210 13.71618 36183 ft 453 kts 111°
2026-05-05 22:35 50.88300 13.76391 36389 ft 454 kts 111°
2026-05-05 22:35 50.87388 13.81178 36591 ft 455 kts 111°
2026-05-05 22:35 50.86477 13.85980 36767 ft 456 kts 111°
2026-05-05 22:36 50.84648 13.95602 36792 ft 457 kts 111°
2026-05-05 22:36 50.82031 14.04509 36789 ft 446 kts 128°
2026-05-05 22:37 50.78681 14.12761 36789 ft 446 kts 127°
2026-05-05 22:37 50.75341 14.21032 36779 ft 446 kts 127°
2026-05-05 22:38 50.72010 14.29274 36787 ft 445 kts 127°
2026-05-05 22:38 50.68659 14.37500 36788 ft 446 kts 127°
2026-05-05 22:39 50.65295 14.45712 36802 ft 446 kts 127°
2026-05-05 22:39 50.61936 14.53916 36797 ft 446 kts 127°
2026-05-05 22:40 50.58575 14.62116 36779 ft 446 kts 127°
2026-05-05 22:40 50.55199 14.70312 36785 ft 447 kts 128°
2026-05-05 22:41 50.51806 14.78502 36786 ft 447 kts 128°
2026-05-05 22:41 50.48430 14.86643 36789 ft 448 kts 128°
2026-05-05 22:42 50.45031 14.94832 36799 ft 448 kts 128°
2026-05-05 22:42 50.41612 15.03017 36757 ft 449 kts 128°
2026-05-05 22:43 50.38182 15.11203 36764 ft 450 kts 128°
2026-05-05 22:43 50.34739 15.19404 36769 ft 451 kts 128°
2026-05-05 22:44 50.31289 15.27605 36774 ft 451 kts 128°
2026-05-05 22:44 50.27832 15.35791 36762 ft 451 kts 127°
2026-05-05 22:45 50.24367 15.43978 36760 ft 452 kts 127°
2026-05-05 22:45 50.20910 15.52106 36764 ft 453 kts 127°
2026-05-05 22:46 50.17414 15.60292 36769 ft 454 kts 127°
2026-05-05 22:46 50.13914 15.68491 36774 ft 454 kts 128°
2026-05-05 22:47 50.10408 15.76666 36760 ft 454 kts 127°
2026-05-05 22:47 50.06880 15.84834 36765 ft 455 kts 128°
2026-05-05 22:48 50.03345 15.93017 36772 ft 456 kts 128°
2026-05-05 22:48 50.00110 16.01510 36795 ft 459 kts 121°
2026-05-05 22:49 49.97161 16.10303 36805 ft 459 kts 121°
2026-05-05 22:49 49.94192 16.19094 36790 ft 460 kts 121°
2026-05-05 22:50 49.91235 16.27814 36800 ft 460 kts 121°
2026-05-05 22:50 49.88240 16.36601 36816 ft 461 kts 121°
2026-05-05 22:51 49.85237 16.45376 36817 ft 461 kts 121°
2026-05-05 22:51 49.82225 16.54138 36811 ft 461 kts 121°
2026-05-05 22:52 49.79206 16.62901 36817 ft 461 kts 121°
2026-05-05 22:52 49.76182 16.71659 36832 ft 462 kts 121°
2026-05-05 22:53 49.73149 16.80418 36833 ft 462 kts 121°
2026-05-05 22:53 49.70108 16.89167 36838 ft 462 kts 121°
2026-05-05 22:54 49.67063 16.97897 36831 ft 462 kts 121°
2026-05-05 22:54 49.64022 17.06563 36835 ft 462 kts 121°
2026-05-05 22:55 49.60959 17.15281 36846 ft 462 kts 121°
2026-05-05 22:55 49.57892 17.23996 36830 ft 462 kts 121°
2026-05-05 22:56 49.54817 17.32698 36831 ft 463 kts 121°
2026-05-05 22:56 49.51732 17.41388 36834 ft 463 kts 121°
2026-05-05 22:57 49.48639 17.50069 36841 ft 463 kts 121°
2026-05-05 22:57 49.45536 17.58737 36847 ft 463 kts 121°
2026-05-05 22:58 49.42426 17.67402 36856 ft 463 kts 121°
2026-05-05 22:58 49.39332 17.75992 36865 ft 463 kts 121°
2026-05-05 22:59 49.36220 17.84637 36867 ft 463 kts 121°
2026-05-05 22:59 49.33097 17.93268 36865 ft 463 kts 121°
2026-05-05 23:00 49.28403 18.06189 36876 ft 463 kts 122°
2026-05-05 23:00 49.25255 18.14795 36867 ft 464 kts 121°
2026-05-05 23:01 49.22009 18.23317 36885 ft 463 kts 123°
2026-05-05 23:01 49.18603 18.31678 36876 ft 463 kts 124°
2026-05-05 23:02 49.15164 18.40019 36884 ft 463 kts 124°
2026-05-05 23:02 49.11765 18.48373 36891 ft 463 kts 123°
2026-05-05 23:03 49.08956 18.55332 36902 ft 463 kts 123°
2026-05-05 23:03 49.05017 18.65036 36906 ft 463 kts 124°
2026-05-05 23:04 49.01611 18.73364 36906 ft 463 kts 123°
2026-05-05 23:04 48.98757 18.80322 36905 ft 462 kts 123°
2026-05-05 23:05 48.95346 18.88628 36912 ft 462 kts 123°
2026-05-05 23:05 48.91957 18.96862 36924 ft 462 kts 123°
2026-05-05 23:06 48.88535 19.05121 36923 ft 462 kts 123°
2026-05-05 23:06 48.85105 19.13374 36934 ft 462 kts 123°
2026-05-05 23:07 48.81678 19.21629 36909 ft 463 kts 124°
2026-05-05 23:07 48.78235 19.29896 36924 ft 464 kts 124°
2026-05-05 23:08 48.74780 19.38141 36950 ft 463 kts 124°
2026-05-05 23:08 48.71320 19.46364 36952 ft 462 kts 124°
2026-05-05 23:09 48.67862 19.54567 36954 ft 462 kts 124°
2026-05-05 23:09 48.64408 19.62750 36956 ft 461 kts 124°
2026-05-05 23:10 48.60944 19.70919 36955 ft 461 kts 124°
2026-05-05 23:10 48.57478 19.79069 36953 ft 461 kts 124°
2026-05-05 23:11 48.54010 19.87209 36949 ft 461 kts 124°
2026-05-05 23:11 48.50558 19.95291 36953 ft 461 kts 124°
2026-05-05 23:12 48.47077 20.03407 36953 ft 461 kts 124°
2026-05-05 23:12 48.43588 20.11510 36950 ft 461 kts 124°
2026-05-05 23:13 48.40093 20.19601 36949 ft 461 kts 124°
2026-05-05 23:13 48.36591 20.27682 36943 ft 461 kts 124°
2026-05-05 23:14 48.33087 20.35761 36951 ft 461 kts 124°
2026-05-05 23:14 48.29604 20.43866 36952 ft 462 kts 123°
2026-05-05 23:15 48.26196 20.52034 36950 ft 462 kts 123°
2026-05-05 23:15 48.22793 20.60207 36948 ft 462 kts 123°
2026-05-05 23:16 48.19359 20.68345 36952 ft 462 kts 124°
2026-05-05 23:16 48.15897 20.76458 36949 ft 462 kts 124°
2026-05-05 23:17 48.12434 20.84557 36948 ft 462 kts 124°
2026-05-05 23:17 48.08971 20.92683 36947 ft 462 kts 123°
2026-05-05 23:18 48.05511 21.00785 36949 ft 462 kts 123°
2026-05-05 23:18 48.02063 21.08819 36957 ft 462 kts 124°
2026-05-05 23:19 47.98588 21.16890 36948 ft 462 kts 124°
2026-05-05 23:19 47.95102 21.24952 36948 ft 462 kts 124°
2026-05-05 23:20 47.91603 21.33010 36954 ft 463 kts 124°
2026-05-05 23:20 47.88100 21.41053 36954 ft 463 kts 124°
2026-05-05 23:21 47.84595 21.49100 36956 ft 463 kts 124°
2026-05-05 23:21 47.81089 21.57129 36965 ft 463 kts 124°
2026-05-05 23:22 47.77573 21.65157 36967 ft 463 kts 124°
2026-05-05 23:22 47.74053 21.73167 36967 ft 463 kts 124°
2026-05-05 23:23 47.70546 21.81104 36966 ft 463 kts 124°
2026-05-05 23:23 47.67012 21.89084 36965 ft 463 kts 124°
2026-05-05 23:24 47.63481 21.97061 36972 ft 463 kts 124°
2026-05-05 23:24 47.59941 22.05021 36970 ft 462 kts 124°
2026-05-05 23:25 47.56259 22.12813 36968 ft 461 kts 130°
2026-05-05 23:25 47.52199 22.20189 36969 ft 462 kts 130°
2026-05-05 23:26 47.48148 22.27570 36974 ft 462 kts 130°
2026-05-05 23:26 47.44081 22.34930 36979 ft 462 kts 130°
2026-05-05 23:27 47.40027 22.42228 36984 ft 463 kts 130°
2026-05-05 23:27 47.35950 22.49570 36991 ft 463 kts 130°
2026-05-05 23:28 47.31871 22.56912 36990 ft 462 kts 130°
2026-05-05 23:28 47.27785 22.64225 36999 ft 462 kts 130°
2026-05-05 23:29 47.23697 22.71522 37000 ft 462 kts 130°
2026-05-05 23:29 47.19601 22.78808 37001 ft 462 kts 130°
2026-05-05 23:30 47.15503 22.86088 37011 ft 462 kts 130°
2026-05-05 23:30 47.11395 22.93364 37013 ft 463 kts 130°
2026-05-05 23:31 47.07283 23.00613 37027 ft 463 kts 130°
2026-05-05 23:31 47.03187 23.07831 37027 ft 463 kts 130°
2026-05-05 23:32 46.99070 23.15070 37035 ft 463 kts 130°
2026-05-05 23:32 46.94945 23.22306 37029 ft 463 kts 130°
2026-05-05 23:33 46.90812 23.29539 37038 ft 463 kts 130°
2026-05-05 23:33 46.86676 23.36753 37031 ft 463 kts 130°
2026-05-05 23:34 46.82530 23.43953 37029 ft 463 kts 130°
2026-05-05 23:34 46.78379 23.51158 37024 ft 464 kts 130°
2026-05-05 23:35 46.74221 23.58353 37023 ft 464 kts 130°
2026-05-05 23:35 46.70055 23.65530 37028 ft 464 kts 130°
2026-05-05 23:36 46.65904 23.72655 37027 ft 464 kts 130°
2026-05-05 23:36 46.61726 23.79820 37028 ft 464 kts 130°
2026-05-05 23:37 46.57546 23.86990 37026 ft 465 kts 130°
2026-05-05 23:37 46.53360 23.94151 37026 ft 465 kts 130°
2026-05-05 23:38 46.49167 24.01297 37018 ft 465 kts 130°
2026-05-05 23:38 46.44959 24.08427 37030 ft 465 kts 130°
2026-05-05 23:39 46.40744 24.15555 37032 ft 466 kts 130°
2026-05-05 23:39 46.36521 24.22678 37033 ft 466 kts 130°
2026-05-05 23:40 46.32294 24.29790 37035 ft 466 kts 130°
2026-05-05 23:40 46.28093 24.36854 37036 ft 466 kts 130°
2026-05-05 23:41 46.23863 24.43956 37039 ft 466 kts 130°
2026-05-05 23:41 46.19623 24.51047 37035 ft 466 kts 130°
2026-05-05 23:42 46.15384 24.58123 37036 ft 466 kts 130°
2026-05-05 23:42 46.11137 24.65193 37043 ft 466 kts 130°
2026-05-05 23:43 46.06887 24.72262 37035 ft 467 kts 130°
2026-05-05 23:43 46.02626 24.79306 37035 ft 467 kts 130°
2026-05-05 23:44 45.98361 24.86345 37042 ft 467 kts 130°
2026-05-05 23:44 45.94124 24.93335 37041 ft 467 kts 130°
2026-05-05 23:45 45.89852 25.00351 36943 ft 467 kts 130°
2026-05-05 23:45 45.87714 25.03851 36671 ft 465 kts 130°
2026-05-05 23:45 45.85580 25.07340 36419 ft 465 kts 130°
2026-05-05 23:46 45.83445 25.10826 36160 ft 465 kts 130°
2026-05-05 23:46 45.81304 25.14318 35896 ft 466 kts 130°
2026-05-05 23:46 45.79167 25.17799 35669 ft 466 kts 130°
2026-05-05 23:46 45.77025 25.21290 35422 ft 467 kts 130°
2026-05-05 23:47 45.74881 25.24782 35172 ft 467 kts 130°
2026-05-05 23:47 45.72733 25.28276 34929 ft 467 kts 129°
2026-05-05 23:47 45.70584 25.31766 34682 ft 468 kts 129°
2026-05-05 23:47 45.68428 25.35258 34444 ft 469 kts 129°
2026-05-05 23:48 45.66268 25.38754 34204 ft 469 kts 129°
2026-05-05 23:48 45.64108 25.42247 33963 ft 470 kts 129°
2026-05-05 23:48 45.61942 25.45745 33702 ft 470 kts 129°
2026-05-05 23:48 45.59774 25.49243 33439 ft 470 kts 129°
2026-05-05 23:49 45.57602 25.52742 33165 ft 470 kts 129°
2026-05-05 23:49 45.55438 25.56222 32894 ft 468 kts 129°
2026-05-05 23:49 45.53281 25.59683 32632 ft 467 kts 129°
2026-05-05 23:49 45.51126 25.63138 32371 ft 465 kts 129°
2026-05-05 23:50 45.49013 25.66528 32113 ft 463 kts 129°
2026-05-05 23:50 45.46881 25.69949 31855 ft 461 kts 129°
2026-05-05 23:50 45.44758 25.73350 31608 ft 459 kts 129°
2026-05-05 23:50 45.42635 25.76740 31357 ft 458 kts 129°
2026-05-05 23:51 45.40519 25.80107 31103 ft 456 kts 129°
2026-05-05 23:51 45.38409 25.83465 30854 ft 454 kts 129°
2026-05-05 23:51 45.36307 25.86805 30580 ft 451 kts 129°
2026-05-05 23:51 45.34221 25.90111 30051 ft 448 kts 129°
2026-05-05 23:52 45.32145 25.93400 29466 ft 445 kts 129°
2026-05-05 23:52 45.30091 25.96659 28948 ft 440 kts 129°
2026-05-05 23:52 45.28058 25.99881 28419 ft 437 kts 129°
2026-05-05 23:52 45.26038 26.03078 27887 ft 433 kts 129°
2026-05-05 23:53 45.24039 26.06236 27391 ft 428 kts 129°
2026-05-05 23:53 45.22055 26.09369 26881 ft 425 kts 129°
2026-05-05 23:53 45.20084 26.12476 26390 ft 422 kts 129°
2026-05-05 23:53 45.18132 26.15552 25899 ft 418 kts 129°
2026-05-05 23:54 45.16193 26.18600 25430 ft 415 kts 130°
2026-05-05 23:54 45.14259 26.21632 24963 ft 413 kts 130°
2026-05-05 23:54 45.12341 26.24631 24524 ft 410 kts 130°
2026-05-05 23:54 45.10431 26.27620 24057 ft 408 kts 130°
2026-05-05 23:55 45.08533 26.30592 23619 ft 406 kts 130°
2026-05-05 23:55 45.06665 26.33515 23136 ft 404 kts 130°
2026-05-05 23:55 45.04790 26.36446 22693 ft 400 kts 130°
2026-05-05 23:55 45.02898 26.39308 22254 ft 397 kts 135°
2026-05-05 23:56 45.00709 26.41673 21810 ft 396 kts 147°
2026-05-05 23:56 44.98232 26.43342 21344 ft 394 kts 160°
2026-05-05 23:56 44.95576 26.44249 20853 ft 393 kts 172°
2026-05-05 23:56 44.92863 26.44630 20371 ft 391 kts 174°
2026-05-05 23:57 44.90164 26.45002 19886 ft 389 kts 173°
2026-05-05 23:57 44.87475 26.45387 19374 ft 387 kts 173°
2026-05-05 23:57 44.84802 26.45775 18871 ft 386 kts 173°
2026-05-05 23:57 44.82138 26.46163 18370 ft 384 kts 173°
2026-05-05 23:58 44.79482 26.46545 17819 ft 382 kts 173°
2026-05-05 23:58 44.76851 26.46914 17297 ft 379 kts 173°
2026-05-05 23:58 44.74229 26.47034 16808 ft 376 kts 187°
2026-05-05 23:58 44.71757 26.45943 16321 ft 373 kts 210°
2026-05-05 23:59 44.69796 26.43677 15832 ft 367 kts 233°
2026-05-05 23:59 44.68582 26.40592 15361 ft 359 kts 255°
2026-05-05 23:59 44.68168 26.37181 14887 ft 352 kts 267°
2026-05-05 23:59 44.67930 26.33817 14437 ft 350 kts 267°
2026-05-06 00:00 44.67688 26.30423 13978 ft 349 kts 267°
2026-05-06 00:00 44.67440 26.27036 13468 ft 347 kts 266°
2026-05-06 00:00 44.67187 26.23684 13005 ft 344 kts 266°
2026-05-06 00:00 44.66937 26.20397 12825 ft 332 kts 266°
2026-05-06 00:01 44.66694 26.17219 12692 ft 320 kts 266°
2026-05-06 00:01 44.66463 26.14166 12557 ft 309 kts 266°
2026-05-06 00:01 44.66240 26.11206 12354 ft 302 kts 266°
2026-05-06 00:01 44.66024 26.08295 12049 ft 298 kts 266°
2026-05-06 00:02 44.65809 26.05408 11689 ft 296 kts 266°
2026-05-06 00:02 44.65594 26.02541 11370 ft 294 kts 266°
2026-05-06 00:02 44.65379 25.99699 11007 ft 293 kts 266°
2026-05-06 00:02 44.65165 25.96882 10728 ft 288 kts 266°
2026-05-06 00:03 44.64951 25.94104 10525 ft 281 kts 266°
2026-05-06 00:03 44.64811 25.92309 10390 ft 277 kts 266°
2026-05-06 00:03 44.64601 25.89635 10116 ft 274 kts 266°
2026-05-06 00:03 44.64392 25.86980 9829 ft 272 kts 266°
2026-05-06 00:04 44.64123 25.83538 9074 ft 266 kts 266°
2026-05-06 00:04 44.63921 25.80977 8460 ft 261 kts 266°
2026-05-06 00:04 44.63723 25.78472 7878 ft 255 kts 265°
2026-05-06 00:04 44.63594 25.76831 7729 ft 247 kts 266°
2026-05-06 00:05 44.62975 25.72055 7153 ft 252 kts 242°
2026-05-06 00:05 44.61781 25.70296 6808 ft 259 kts 212°
2026-05-06 00:05 44.60037 25.69648 6406 ft 266 kts 180°
2026-05-06 00:06 44.58193 25.69894 6036 ft 263 kts 175°
2026-05-06 00:06 44.56404 25.70261 5600 ft 260 kts 164°
2026-05-06 00:06 44.54812 25.71570 5004 ft 271 kts 132°
2026-05-06 00:06 44.53990 25.73866 4535 ft 260 kts 99°
2026-05-06 00:07 44.54013 25.76287 4227 ft 240 kts 83°
2026-05-06 00:07 44.54198 25.78530 3943 ft 224 kts 83°
2026-05-06 00:07 44.54369 25.80622 3721 ft 210 kts 84°
2026-05-06 00:07 44.54526 25.82611 3460 ft 200 kts 84°
2026-05-06 00:08 44.54674 25.84498 3211 ft 189 kts 84°
2026-05-06 00:08 44.54814 25.86279 3000 ft 180 kts 85°
2026-05-06 00:08 44.54944 25.87950 2809 ft 167 kts 86°
2026-05-06 00:08 44.55067 25.89526 2610 ft 160 kts 86°
2026-05-06 00:09 44.55186 25.91061 2423 ft 157 kts 87°
2026-05-06 00:09 44.55303 25.92570 2239 ft 155 kts 87°
2026-05-06 00:09 44.55417 25.94052 2058 ft 155 kts 87°
2026-05-06 00:09 44.55533 25.95540 1873 ft 152 kts 86°
2026-05-06 00:10 44.55647 25.97008 1691 ft 151 kts 86°
2026-05-06 00:10 44.55759 25.98463 1508 ft 150 kts 86°
2026-05-06 00:10 44.55871 25.99914 1329 ft 150 kts 85°
2026-05-06 00:10 44.55982 26.01359 1149 ft 148 kts 86°
2026-05-06 00:11 44.56091 26.02780 980 ft 146 kts 84°
2026-05-06 00:11 44.56199 26.04187 804 ft 145 kts 83°
2026-05-06 00:11 44.56306 26.05580 639 ft 143 kts 83°
2026-05-06 00:11 44.56412 26.06961 466 ft 142 kts 83°
2026-05-06 00:12 44.56517 26.08324 322 ft 133 kts 84°
2026-05-06 00:12 44.56597 26.09403 319 ft 87 kts 84°
2026-05-06 00:12 44.56646 26.10045 322 ft 56 kts 84°
2026-05-06 00:12 44.56685 26.10545 321 ft 35 kts 83°
2026-05-06 00:13 44.56721 26.10759 321 ft 19 kts 45°
2026-05-06 00:13 44.56836 26.10758 321 ft 18 kts 351°
2026-05-06 00:13 44.56962 26.10731 320 ft 17 kts 344°
2026-05-06 00:13 44.57045 26.10605 321 ft 19 kts 297°
2026-05-06 00:14 44.57063 26.10421 319 ft 20 kts 264°
2026-05-06 00:14 44.57047 26.10216 321 ft 22 kts 264°
2026-05-06 00:14 44.57030 26.09997 321 ft 23 kts 264°
2026-05-06 00:14 44.57013 26.09773 321 ft 22 kts 263°
2026-05-06 00:15 44.56997 26.09574 321 ft 19 kts 263°
2026-05-06 00:15 44.56985 26.09406 321 ft 10 kts 264°
2026-05-06 00:15 44.56983 26.09379 321 ft 0 kts 264°
2026-05-06 00:16 44.56982 26.09367 321 ft 6 kts 263°
2026-05-06 00:16 44.56972 26.09260 321 ft 13 kts 264°
2026-05-06 00:16 44.56951 26.09200 320 ft 7 kts 199°
2026-05-06 00:16 44.56912 26.09202 319 ft 1 kts 174°
2026-05-06 00:17 44.56911 26.09202 320 ft 0 kts 174°